TimeAKST,TemperatureF,Dew PointF,Humidity,Sea Level PressureIn,VisibilityMPH,Wind Direction,Wind SpeedMPH,Gust SpeedMPH,PrecipitationIn,Events,Conditions,WindDirDegrees,DateUTC
12:53 AM,-17.0,-22.0,78,30.19,10.0,Calm,Calm,-,N/A,,Overcast,0,2012-11-12 09:53:00
1:53 AM,-15.0,-18.9,82,30.20,10.0,Calm,Calm,-,N/A,,Overcast,0,2012-11-12 10:53:00
3:53 AM,-14.1,-20.0,75,30.22,10.0,Calm,Calm,-,N/A,,Overcast,0,2012-11-12 12:53:00
4:53 AM,-13.0,-18.9,75,30.24,10.0,Calm,Calm,-,N/A,,Overcast,0,2012-11-12 13:53:00
5:53 AM,-11.9,-18.0,74,30.25,10.0,Calm,Calm,-,N/A,,Overcast,0,2012-11-12 14:53:00
6:53 AM,-11.9,-17.0,78,30.25,10.0,Calm,Calm,-,N/A,,Overcast,0,2012-11-12 15:53:00
7:53 AM,-11.9,-17.0,78,30.26,10.0,Calm,Calm,-,N/A,,Overcast,0,2012-11-12 16:53:00
8:53 AM,-11.9,-17.0,78,30.27,10.0,Calm,Calm,-,N/A,,Overcast,0,2012-11-12 17:53:00
9:53 AM,-11.9,-17.0,78,30.28,10.0,Calm,Calm,-,N/A,,Overcast,0,2012-11-12 18:53:00
10:53 AM,-13.0,-17.0,82,30.29,6.0,Calm,Calm,-,N/A,,Overcast,0,2012-11-12 19:53:00
11:53 AM,-11.9,-17.0,78,30.29,10.0,WNW,3.5,-,N/A,,Overcast,300,2012-11-12 20:53:00
12:45 PM,-13.0,-18.4,77,30.18,10.0,Calm,Calm,-,N/A,,Partly Cloudy,0,2012-11-12 21:45:00
12:53 PM,-13.0,-18.0,78,30.29,10.0,Calm,Calm,-,N/A,,Partly Cloudy,0,2012-11-12 21:53:00
1:53 PM,-16.1,-22.0,74,30.29,10.0,Calm,Calm,-,N/A,,Clear,0,2012-11-12 22:53:00
2:28 PM,-18.4,-23.8,76,30.19,10.0,Calm,Calm,-,N/A,,Mostly Cloudy,0,2012-11-12 23:28:00
2:53 PM,-18.0,-24.0,74,30.29,10.0,South,3.5,-,N/A,,Overcast,170,2012-11-12 23:53:00
3:53 PM,-20.0,-27.0,70,30.30,10.0,Calm,Calm,-,N/A,,Overcast,0,2012-11-13 00:53:00
4:53 PM,-20.0,-27.0,70,30.30,10.0,Calm,Calm,-,N/A,,Overcast,0,2012-11-13 01:53:00
5:53 PM,-20.9,-27.9,70,30.31,10.0,Calm,Calm,-,N/A,,Overcast,0,2012-11-13 02:53:00
6:53 PM,-23.1,-29.0,74,30.31,10.0,Calm,Calm,-,N/A,,Overcast,0,2012-11-13 03:53:00
7:16 PM,-22.0,-29.2,69,30.21,10.0,Calm,Calm,-,N/A,,Overcast,0,2012-11-13 04:16:00
7:53 PM,-22.0,-27.9,74,30.31,10.0,Calm,Calm,-,N/A,,Overcast,0,2012-11-13 04:53:00
8:53 PM,-25.1,-32.1,70,30.31,10.0,SSE,4.6,-,N/A,,Mostly Cloudy,160,2012-11-13 05:53:00
9:53 PM,-27.0,-33.0,73,30.30,10.0,Calm,Calm,-,N/A,,Mostly Cloudy,0,2012-11-13 06:53:00
10:13 PM,-27.4,-34.6,69,30.20,10.0,SSE,3.5,-,N/A,,Scattered Clouds,160,2012-11-13 07:13:00
10:53 PM,-27.9,-35.0,69,30.31,10.0,South,4.6,-,N/A,,Clear,170,2012-11-13 07:53:00
11:53 PM,-29.0,-36.0,69,30.30,10.0,South,3.5,-,N/A,,Clear,170,2012-11-13 08:53:00